Weather Service Report


478 
ASCA42 TJSJ 250110
RWRPR 
PUERTO RICO/U.S. VIRGIN ISLANDS HOURLY WEATHER ROUNDUP
NATIONAL WEATHER SERVICE SAN JUAN PR
900 PM AST WED AUG 24 2016

PRZ001>002-007>008-010-250200-
PUERTO RICO
  
CITY           SKY/WX    TMP DP  RH WIND       PRES   REMARKS
SAN JUAN LMM   MOCLDY    82  73  74 SE6       29.92R                  
AGUADILLA      PTCLDY    79  72  78 SW7       29.88R                  
CEIBA          CLEAR     82  73  74 S15       29.94R                  
$$

VIZ001>002-250200-
U.S. VIRGIN ISLANDS
  
CITY           SKY/WX    TMP DP  RH WIND       PRES   REMARKS
CHARLOTTE AMA  PTCLDY    84  79  84 SE15      29.93  HX  96           
CHRISTIANSTED  PTCLDY    84  73  70 SE12      29.95R HX  91           
$$

HOURLY WEATHER ROUNDUP FOR THE NEWS MEDIA
  
CITY           SKY/WX    TMP DP  RH WIND       PRES   REMARKS
ORLANDO        CLOUDY    82  74  76 NE8       30.11R                  
NEW YORK       PTCLDY    76  71  85 S18G25    30.19R                  
NEWARK         PTCLDY    78  63  59 S12       30.16R                  
CHICAGO        MOCLDY    79  72  79 W8        29.96R                  
HARTFORD       CLEAR     72  63  73 SW6       30.19R                  
BOSTON         CLOUDY    79  61  53 SW12      30.16R                  
DALLAS         PTCLDY    90  68  48 S15       30.02R HX  94           
PHILADELPHIA   MOCLDY    76  61  59 S13       30.19S                  
LOS ANGELES    SUNNY     70  61  73 W9        29.93F                  
WASHINGTON DC  PTCLDY    76  66  71 SE8       30.18S                  

Return to Home page


Western Regional Climate Center, wrcc@dri.edu